DW3588 Weather Reports


Display with metric or nautical units.
time (UTC)temp
F
wind
direction
speed
MPH
gust
MPH
rain 1hr
in
rain 24hr
in
rain mn
in
humidity
%
barometer
mb
20260503213813 71 244 6.0 12.0 0.00 0.00 0.00 50 1011.5
20260503213313 70 223 6.0 14.0 0.00 0.00 0.00 50 1011.5
20260503213028 71 210 5.0 14.0 0.00 0.00 0.00 50 1011.6
20260503212307 71 229 5.0 11.0 0.00 0.00 0.00 49 1011.4
20260503212031 71 216 6.0 12.0 0.00 0.00 0.00 49 1011.4
20260503211308 69 232 7.0 12.0 0.00 0.00 0.00 51 1011.5
20260503210807 69 242 7.0 12.0 0.00 0.00 0.00 51 1011.5
20260503210304 70 248 7.0 12.0 0.00 0.00 0.00 50 1011.6
20260503205807 70 236 6.0 11.0 0.00 0.00 0.00 50 1011.6
20260503205741 71 319 6.0 11.0 0.00 0.00 0.00 50 1011.5
20260503204803 72 252 7.0 14.0 0.00 0.00 0.00 49 1011.4
20260503204302 73 206 7.0 14.0 0.00 0.00 0.00 48 1011.4
20260503203801 73 174 7.0 14.0 0.00 0.00 0.00 48 1011.3
20260503203300 71 241 7.0 14.0 0.00 0.00 0.00 49 1011.4
20260503202800 71 248 6.0 13.0 0.00 0.00 0.00 49 1011.5
20260503202251 72 222 6.0 13.0 0.00 0.00 0.00 49 1011.5
20260503201751 73 238 6.0 14.0 0.00 0.00 0.00 48 1011.5
20260503201251 74 225 6.0 14.0 0.00 0.00 0.00 48 1011.5
20260503200751 73 216 6.0 13.0 0.00 0.00 0.00 49 1011.6
20260503200251 71 234 6.0 14.0 0.00 0.00 0.00 51 1011.5
20260503195750 71 267 6.0 16.0 0.00 0.00 0.00 50 1011.7
20260503195248 71 267 4.0 16.0 0.00 0.00 0.00 50 1011.5
20260503194750 73 186 5.0 12.0 0.00 0.00 0.00 49 1011.8
20260503194248 72 281 5.0 12.0 0.00 0.00 0.00 50 1011.8
20260503193746 70 238 6.0 11.0 0.00 0.00 0.00 52 1011.9
20260503193243 71 259 7.0 12.0 0.00 0.00 0.00 51 1012.0
20260503192740 71 247 7.0 15.0 0.00 0.00 0.00 51 1011.9
20260503192239 71 198 7.0 15.0 0.00 0.00 0.00 50 1011.9
20260503191738 71 232 7.0 13.0 0.00 0.00 0.00 52 1011.9
20260503191234 71 252 8.0 13.0 0.00 0.00 0.00 51 1012.0
20260503190731 71 233 8.0 13.0 0.00 0.00 0.00 52 1012.0
20260503190229 70 234 8.0 16.0 0.00 0.00 0.00 51 1012.0
20260503185728 70 220 8.0 16.0 0.00 0.00 0.00 53 1012.1
20260503185224 71 229 7.0 14.0 0.00 0.00 0.00 51 1012.0
20260503184721 71 248 5.0 13.0 0.00 0.00 0.00 52 1011.9
20260503184221 70 236 5.0 13.0 0.00 0.00 0.00 52 1012.0
20260503183722 69 225 6.0 13.0 0.00 0.00 0.00 55 1012.0
20260503183221 69 275 7.0 14.0 0.00 0.00 0.00 54 1012.1
20260503182716 69 203 7.0 14.0 0.00 0.00 0.00 53 1012.1
20260503182215 69 265 7.0 15.0 0.00 0.00 0.00 54 1012.1
20260503181711 69 248 7.0 15.0 0.00 0.00 0.00 55 1012.1
20260503181211 68 281 6.0 13.0 0.00 0.00 0.00 56 1012.1
20260503180712 68 272 6.0 13.0 0.00 0.00 0.00 57 1012.0
20260503180438 67 246 6.0 13.0 0.00 0.00 0.00 58 1012.1
20260503175708 67 292 7.0 12.0 0.00 0.00 0.00 58 1012.1
20260503175205 66 270 8.0 17.0 0.00 0.00 0.00 57 1012.2
20260503174705 67 269 8.0 17.0 0.00 0.00 0.00 58 1012.2
20260503174200 67 220 7.0 15.0 0.00 0.00 0.00 58 1012.1
20260503173924 67 215 9.0 16.0 0.00 0.00 0.00 57 1012.1
20260503173159 67 265 9.0 16.0 0.00 0.00 0.00 56 1012.0
20260503172700 67 246 8.0 16.0 0.00 0.00 0.00 58 1011.9
20260503172200 67 236 8.0 15.0 0.00 0.00 0.00 58 1012.0
20260503171658 66 252 8.0 15.0 0.00 0.00 0.00 58 1011.9
20260503171159 66 275 8.0 17.0 0.00 0.00 0.00 58 1011.9
20260503170659 66 242 8.0 17.0 0.00 0.00 0.00 57 1011.9
20260503170159 66 235 8.0 15.0 0.00 0.00 0.00 58 1011.8
20260503150646 56 234 3.0 8.0 0.00 0.00 0.00 75 1011.0
20260503150411 56 267 1.0 8.0 0.00 0.00 0.00 75 1011.0
20260503140134 55 196 0.0 0.0 0.00 0.00 0.00 77 1010.2
20260503131352 55 196 0.0 0.0 0.00 0.00 0.00 75 1009.5
20260503130850 55 196 0.0 0.0 0.00 0.00 0.00 75 1009.5
20260503130126 55 196 0.0 0.0 0.00 0.00 0.00 75 1009.3
20260503120113 55 278 0.0 0.0 0.00 0.00 0.00 76 1009.2
20260503110557 56 278 0.0 1.0 0.00 0.00 0.00 76 1009.1
20260503090454 56 279 2.0 4.0 0.00 0.00 0.00 74 1009.4
20260503090219 56 267 2.0 4.0 0.00 0.00 0.00 74 1009.5
20260503081440 57 267 2.0 4.0 0.00 0.00 0.00 73 1009.6
20260503080940 57 265 2.0 3.0 0.00 0.00 0.00 73 1009.7
20260503080702 57 265 2.0 4.0 0.00 0.00 0.00 73 1009.8
20260503072935 57 273 2.0 6.0 0.00 0.00 0.00 74 1009.8
20260503072656 57 275 2.0 6.0 0.00 0.00 0.00 74 1009.9
20260503071931 57 271 2.0 4.0 0.00 0.00 0.00 74 1009.9
20260503071429 57 269 2.0 4.0 0.00 0.00 0.00 74 1009.9
20260503070922 57 268 2.0 4.0 0.00 0.00 0.00 73 1009.9
20260503070641 57 267 2.0 4.0 0.00 0.00 0.00 74 1009.9
20260503054908 58 269 1.0 4.0 0.00 0.00 0.00 73 1010.4
20260503054408 58 230 0.0 2.0 0.00 0.00 0.00 73 1010.4
20260503053908 58 230 0.0 3.0 0.00 0.00 0.00 73 1010.6
20260503053406 58 230 1.0 3.0 0.00 0.00 0.00 73 1010.6
20260503052906 58 230 1.0 2.0 0.00 0.00 0.00 72 1010.5
20260503052406 58 229 0.0 2.0 0.00 0.00 0.00 72 1010.6
20260503051904 58 229 1.0 3.0 0.00 0.00 0.00 72 1010.6
20260503051403 58 229 1.0 3.0 0.00 0.00 0.00 72 1010.6
20260503050858 58 230 1.0 2.0 0.00 0.00 0.00 72 1010.7
20260503050356 58 230 1.0 2.0 0.00 0.00 0.00 72 1010.6
20260503045854 58 230 1.0 4.0 0.00 0.00 0.00 71 1010.5
20260503045354 58 230 3.0 7.0 0.00 0.00 0.00 72 1010.5
20260503044852 58 232 4.0 8.0 0.00 0.00 0.00 71 1010.4
20260503044349 58 244 5.0 8.0 0.00 0.00 0.00 71 1010.3
20260503043850 59 271 5.0 10.0 0.00 0.00 0.00 71 1010.3
20260503043347 59 262 5.0 10.0 0.00 0.00 0.00 71 1010.2
20260503042846 59 288 4.0 8.0 0.00 0.00 0.00 70 1010.3
20260503042347 59 267 4.0 8.0 0.00 0.00 0.00 70 1010.3
20260503041844 59 240 4.0 9.0 0.00 0.00 0.00 70 1010.3
20260503041608 59 238 4.0 9.0 0.00 0.00 0.00 70 1010.2
20260503040843 59 234 4.0 10.0 0.00 0.00 0.00 69 1010.2
20260503040605 59 242 5.0 11.0 0.00 0.00 0.00 69 1010.2
20260503035842 59 234 6.0 11.0 0.00 0.00 0.00 69 1010.0
20260503035601 59 229 7.0 12.0 0.00 0.00 0.00 69 1010.0
20260503034836 60 290 7.0 12.0 0.00 0.00 0.00 69 1009.9
20260503034336 60 275 7.0 11.0 0.00 0.00 0.00 68 1009.9
20260503033834 60 267 7.0 12.0 0.00 0.00 0.00 68 1009.8
20260503033332 60 279 7.0 13.0 0.00 0.00 0.00 68 1009.7
20260503032831 60 250 8.0 13.0 0.00 0.00 0.00 68 1009.6
20260503032332 60 268 9.0 14.0 0.00 0.00 0.00 68 1009.6
20260503031832 60 261 9.0 14.0 0.00 0.00 0.00 67 1009.5
20260503031335 61 279 9.0 15.0 0.00 0.00 0.00 67 1009.4
20260503030832 61 248 9.0 15.0 0.00 0.00 0.00 67 1009.4
20260503030330 61 269 9.0 14.0 0.00 0.00 0.00 66 1009.2
20260503025829 62 267 9.0 14.0 0.00 0.00 0.00 66 1009.2
20260503025329 62 271 9.0 14.0 0.00 0.00 0.00 65 1009.2
20260503024828 63 283 8.0 13.0 0.00 0.00 0.00 64 1009.1
20260503024551 63 294 8.0 12.0 0.00 0.00 0.00 64 1009.1
20260503023828 64 276 7.0 12.0 0.00 0.00 0.00 63 1009.1
20260503023557 64 268 7.0 12.0 0.00 0.00 0.00 63 1009.1
20260503022826 65 251 7.0 12.0 0.00 0.00 0.00 62 1009.1
20260503022325 65 257 6.0 12.0 0.00 0.00 0.00 62 1009.0
20260503021826 65 248 6.0 11.0 0.00 0.00 0.00 61 1009.0
20260503021326 66 248 6.0 11.0 0.00 0.00 0.00 61 1009.0
20260503020827 66 257 6.0 11.0 0.00 0.00 0.00 60 1009.0
20260503020546 66 261 6.0 13.0 0.00 0.00 0.00 60 1009.0
20260503015828 67 235 6.0 13.0 0.00 0.00 0.00 59 1008.9
20260503015325 67 200 7.0 13.0 0.00 0.00 0.00 59 1009.0
20260503014825 68 298 7.0 11.0 0.00 0.00 0.00 58 1009.1
20260503014314 68 260 6.0 11.0 0.00 0.00 0.00 57 1009.0
20260503013812 69 240 5.0 9.0 0.00 0.00 0.00 57 1009.0
20260503013307 69 274 6.0 11.0 0.00 0.00 0.00 57 1009.0
20260503012809 69 247 6.0 11.0 0.00 0.00 0.00 56 1009.0
20260503012308 69 270 5.0 10.0 0.00 0.00 0.00 56 1009.0
20260503011808 70 219 5.0 10.0 0.00 0.00 0.00 55 1009.0
20260503011306 70 257 6.0 13.0 0.00 0.00 0.00 55 1009.0
20260503010805 70 277 8.0 13.0 0.00 0.00 0.00 55 1009.0
20260503010748 70 261 7.0 13.0 0.00 0.00 0.00 54 1009.0
20260503010027 71 277 6.0 15.0 0.00 0.00 0.00 54 1009.1
20260503005306 71 269 7.0 15.0 0.00 0.00 0.00 54 1009.0
20260503004805 71 254 7.0 13.0 0.00 0.00 0.00 53 1009.1
20260503004306 71 280 7.0 14.0 0.00 0.00 0.00 52 1009.1
20260503003804 72 251 7.0 14.0 0.00 0.00 0.00 53 1009.1
20260503003304 72 304 7.0 12.0 0.00 0.00 0.00 53 1009.0
20260503002804 72 262 7.0 13.0 0.00 0.00 0.00 52 1009.0
20260503002520 72 243 7.0 13.0 0.00 0.00 0.00 53 1009.0
20260503001759 72 243 7.0 15.0 0.00 0.00 0.00 52 1009.1
20260503001256 73 268 8.0 15.0 0.00 0.00 0.00 51 1009.1
20260503000756 73 336 7.0 14.0 0.00 0.00 0.00 51 1009.1
20260503000255 73 294 7.0 14.0 0.00 0.00 0.00 51 1009.1
20260502235754 73 269 7.0 14.0 0.00 0.00 0.00 51 1009.2
20260502235736 73 269 7.0 12.0 0.00 0.00 0.00 50 1009.2
20260502235009 73 252 7.0 13.0 0.00 0.00 0.00 51 1009.3
20260502234252 74 252 7.0 13.0 0.00 0.00 0.00 50 1009.3
20260502233750 74 263 6.0 12.0 0.00 0.00 0.00 49 1009.3
20260502233250 74 265 6.0 11.0 0.00 0.00 0.00 49 1009.4
20260502232748 74 270 7.0 12.0 0.00 0.00 0.00 49 1009.5
20260502232246 74 275 7.0 12.0 0.00 0.00 0.00 49 1009.5
20260502231743 74 286 7.0 12.0 0.00 0.00 0.00 49 1009.5
20260502231240 75 304 7.0 13.0 0.00 0.00 0.00 47 1009.6
20260502230739 75 269 7.0 13.0 0.00 0.00 0.00 47 1009.6
20260502230506 75 274 7.0 12.0 0.00 0.00 0.00 46 1009.8
20260502225737 75 313 6.0 12.0 0.00 0.00 0.00 46 1009.8
20260502224738 76 286 6.0 12.0 0.00 0.00 0.00 45 1010.0
20260502224237 76 270 7.0 12.0 0.00 0.00 0.00 45 1010.0
20260502223959 76 262 7.0 12.0 0.00 0.00 0.00 44 1010.2
20260502223238 76 267 6.0 11.0 0.00 0.00 0.00 45 1010.3
20260502222738 77 271 6.0 12.0 0.00 0.00 0.00 45 1010.3
20260502222236 76 279 6.0 12.0 0.00 0.00 0.00 45 1010.4
20260502222001 76 266 6.0 12.0 0.00 0.00 0.00 46 1010.5
20260502221235 76 262 7.0 13.0 0.00 0.00 0.00 44 1010.5
20260502220735 76 254 7.0 13.0 0.00 0.00 0.00 45 1010.5
20260502220235 76 215 6.0 14.0 0.00 0.00 0.00 45 1010.5
20260502215734 76 268 5.0 14.0 0.00 0.00 0.00 45 1010.5
20260502215234 76 284 5.0 12.0 0.00 0.00 0.00 46 1010.6
20260502215216 76 248 5.0 13.0 0.00 0.00 0.00 46 1010.6
20260502214235 76 273 5.0 13.0 0.00 0.00 0.00 46 1010.6